Location: *
(41.0833°N, 73.4167°W)
Time: 03:31:27
(UTC+00:00)

Abrixas rocket - Pass Details

Date: 22 October 2019
Orbit: 359 x 368 km, 48.4° (Epoch: 16 November)

Event Time Altitude Azimuth Distance (km) Brightness Sun altitude
Rises 00:00:38 0° 287° (WNW) 2,222 7.3 -22.6°
Reaches altitude 10° 00:03:01 10° 304° (NW) 1,371 5.7 -23.0°
Enters shadow 00:04:36 18° 333° (NNW) 982 4.4 -23.3°
